Tracking 29933 objects as of 2-Dec-2024
HD Live streaming from Space Station
objects crossing your sky now

STARLINK-30848

Track STARLINK-30848 now!
10-day predictions
STARLINK-30848 is classified as:


NORAD ID: 58240
Int'l Code: 2023-171L
Perigee: 565.8 km
Apogee: 566.7 km
Inclination: 43.0 °
Period: 95.8 minutes
Semi major axis: 6937 km
RCS: Unknown
Launch date: November 8, 2023
Source: United States (US)
Launch site: AIR FORCE EASTERN TEST RANGE (AFETR)
Your satellite tracking list
Your tracking list is empty




NASA's NSSDC Master Catalog

Two Line Element Set (TLE):
1 58240U 23171L   24337.56545997 -.00002852  00000-0 -19622-3 0  9994
2 58240  43.0044 278.4282 0000669 285.2436  74.8333 15.02522586 60190
Source of the keplerian elements: AFSPC